Regional Weather Roundup
Issued by NWS

Home | Current Version | Previous Version | Graphics & Text | Print | Product List | Glossary On
Versions: 1 2 3 4 5 6 7 8 9 10 11 12 13 14 15 16 17 18 19 20 21 22 23 24 25 26 27 28 29 30 31 32 33 34 35 36 37 38 39 40 41 42 43 44 45 46 47 48 49 50
000
ASUS43 KOAX 162110
RWRNE

WEATHER ROUNDUP FOR NEBRASKA
NATIONAL WEATHER SERVICE OMAHA NE
400 PM CDT WED APR 16 2014

NOTES: SATELLITE DATA IS BEING USED TO AUGMENT CLOUD COVER ABOVE
       12000 FEET.
       "FAIR" INDICATES FEW OR NO CLOUDS BELOW 12,000 FEET WITH NO
       SIGNIFICANT WEATHER AND/OR OBSTRUCTIONS TO VISIBILITY.

  * THESE STATIONS DO NOT REPORT WEATHER SUCH AS RAIN...SNOW OR FOG.

NEZ001>004-019>022-054>056-162200-
NEBRASKA PANHANDLE

CITY           SKY/WX    TMP DP  RH WIND       PRES   REMARKS
SCOTTSBLUFF    PTSUNNY   52  24  33 N22G31    29.95S
ALLIANCE       PTSUNNY   50  35  56 N18G26    29.95R
CHADRON        PTSUNNY   46  35  65 NE14      29.99R
KIMBALL        PTSUNNY   48  22  35 N20G25    29.94S
SIDNEY         PTSUNNY   54  23  30 N22G37    29.94R
$$

NEZ057>060-069>072-079>082-162200-
SOUTHWEST NEBRASKA

CITY           SKY/WX    TMP DP  RH WIND       PRES   REMARKS
NORTH PLATTE   PTSUNNY   50  34  54 N18       29.92R
IMPERIAL       CLOUDY    53  33  46 N21G28    29.94R
LEXINGTON      MOSUNNY   54  35  49 N24G31    29.89R
MCCOOK         MOSUNNY   57  34  41 N23       29.91R
OGALLALA       CLOUDY    49  32  52 N20G29    29.95R
$$

NEZ005>010-023>029-035>040-094-162200-
NORTH CENTRAL NEBRASKA

CITY           SKY/WX    TMP DP  RH WIND       PRES   REMARKS
VALENTINE      CLOUDY    35  29  78 N16       29.99R WCI  25
AINSWORTH      CLOUDY    36  30  79 N26G33    29.96R WCI  24
BROKEN BOW     PTSUNNY   47  33  58 N26G37    29.89R
O`NEILL        CLOUDY    36  27  70 NW26G38   29.92R WCI  24
ORD            CLOUDY    44  31  60 NW26G37   29.89R
THEDFORD       CLOUDY    41  33  72 NW20G26   29.96R
$$

NEZ041-046>049-061>064-073>077-083>087-162200-
SOUTH CENTRAL NEBRASKA

CITY           SKY/WX    TMP DP  RH WIND       PRES   REMARKS
GRAND ISLAND   CLOUDY    46  33  60 N24G35    29.88R
AURORA         CLOUDY    48  34  58 NW25G31   29.87R
HASTINGS       PTSUNNY   50  34  54 N25G33    29.87R
HEBRON         PTSUNNY   64  38  38 NW25G35   29.80R
HOLDREGE       MOSUNNY   53  36  54 N21G30    29.88R
KEARNEY *      MOSUNNY   52  36  54 N22G33    29.88R
YORK           CLOUDY    50  36  57 NW26G36   29.83R
$$

NEZ011>018-030>034-042>045-162200-
NORTHEAST NEBRASKA

CITY           SKY/WX    TMP DP  RH WIND       PRES   REMARKS
NORFOLK        LGT RAIN  39  31  72 NW28G37   29.81R WCI  28
ALBION         CLOUDY    41  32  69 N25G36    29.85R
BLAIR          PTSUNNY   66  29  25 SW22G30   29.67S
COLUMBUS *     CLOUDY    45  28  53 NW25G33   29.83R
FREMONT        PTSUNNY   56  33  42 NW35G41   29.74R
TEKAMAH        PTSUNNY   64  32  30 W25G35    29.68R
$$

NEZ050>053-065>068-078-088>093-162200-
SOUTHEAST NEBRASKA

CITY           SKY/WX    TMP DP  RH WIND       PRES   REMARKS
LINCOLN        PTSUNNY   63  36  36 NW24G31   29.75R
OMAHA EPPLEY   PTSUNNY   68  27  21 SW15G33   29.67F
BEATRICE       SUNNY     68  36  30 W26       29.73R
NEBRASKA CITY  SUNNY     69  29  22 SW29G38   29.71F
PLATTSMOUTH    MOSUNNY   70  23  17 SW29G37   29.69F
$$

NEZ044-045-051>053-067-162200-
OMAHA AREA

CITY           SKY/WX    TMP DP  RH WIND       PRES   REMARKS
OMAHA EPPLEY   PTSUNNY   68  27  21 SW15G33   29.67F
BLAIR          PTSUNNY   66  29  25 SW22G30   29.67S
FREMONT        PTSUNNY   56  33  42 NW35G41   29.74R
MILLARD        PTSUNNY   67  30  24 SW17G26   29.68S
OFFUTT AFB     PTSUNNY   69  29  22 S21G30    29.68F
PLATTSMOUTH    MOSUNNY   70  23  17 SW29G37   29.69F
WAHOO          FAIR      59  33  37 NW29G39   29.74R
$$



USA.gov is the U.S. government's official web portal to all federal, state and local government web resources and services.